[[{"header":{"parameterUnit":"m.s-1","parameterCategory":1,"la1":30.2991,"la2":30.254,"lo1":-89.0895,"lo2":-89.0444,"dy":0.0017,"dx":0.0017,"nx":28,"ny":28,"refTime":"2024-04-30T03:00:00:Z","depth":0,"parameterNumber":2,"parameterNumberName":"U-component_of_WINDS"},"data":[0,0,0,0,0,0,0,0,0,0,0,0,0,0,0,0,0,0,0,0,0,0,0,0,0,0,0,0,0,0,0,0,0,0,0,0,0,0,0,0,0,0,0,0,0,0,0,0,0,0,0,0,0,0,0,0,0,0,-1.533,-1.533,0,-1.5341,-1.5341,-1.5341,-1.5324,-1.5324,-1.5323,-1.5323,-1.5334,-1.5335,-1.5336,0,0,0,0,0,0,0,0,0,0,0,0,0,-1.5298,-1.5298,-1.533,-1.533,-1.5331,-1.5341,-1.5341,-1.5341,-1.5325,-1.5324,-1.5323,-1.5323,-1.5334,-1.5335,-1.5336,0,0,0,0,0,0,0,0,0,0,0,0,0,-1.531,-1.5299,-1.533,-1.5324,-1.5323,-1.5341,-1.5341,-1.5341,-1.5325,-1.5324,-1.5323,-1.5322,-1.5333,-1.5335,-1.5336,-1.536,0,0,-1.534,-1.534,0,0,0,0,0,0,0,0,-1.531,-1.5312,-1.5324,-1.5324,-1.5324,-1.533,-1.5333,-1.5348,-1.5325,-1.5324,-1.5323,-1.5322,-1.5333,-1.5335,-1.5338,-1.5361,-1.5361,-1.534,-1.534,-1.5341,-1.5341,0,0,0,0,0,0,0,-1.5309,-1.5311,-1.5334,-1.5325,-1.5324,-1.5321,-1.5321,-1.5336,-1.5333,-1.5324,-1.5323,-1.5324,-1.5333,-1.5337,-1.5339,-1.5362,-1.534,-1.5341,-1.5341,-1.5342,-1.5406,-1.5407,0,0,0,0,0,0,-1.5309,-1.531,-1.5334,-1.5335,-1.5314,-1.5322,-1.5323,-1.5329,-1.5333,-1.5333,-1.5325,-1.5324,-1.5336,-1.5337,-1.5339,-1.5369,-1.5341,-1.5342,-1.5343,-1.5405,-1.5406,-1.5407,0,0,0,0,0,0,-1.5308,-1.5311,-1.5334,-1.5322,-1.5325,-1.5323,-1.5331,-1.533,-1.5334,-1.5334,-1.5334,-1.533,-1.5335,-1.5337,-1.5355,-1.5369,-1.5343,-1.5344,-1.5404,-1.5406,-1.5407,-1.5428,0,0,0,0,0,0,-1.5307,-1.5311,-1.532,-1.5323,-1.5326,-1.535,-1.5331,-1.5331,-1.5336,-1.5334,-1.5338,-1.5338,-1.5335,-1.5354,-1.5357,-1.537,-1.5345,-1.5403,-1.5405,-1.5406,-1.5426,-1.543,-1.5434,0,0,0,0,0,-1.5306,-1.5325,-1.532,-1.5323,-1.5337,-1.535,-1.5352,-1.5347,-1.5337,-1.5347,-1.5347,-1.5338,-1.5367,-1.5356,-1.5359,-1.5373,-1.5402,-1.5404,-1.5406,-1.5425,-1.543,-1.5434,0,0,0,0,0,0,-1.5324,-1.5325,-1.532,-1.534,-1.5346,-1.5348,-1.5359,-1.5352,-1.5361,-1.5358,-1.5352,-1.5354,-1.5373,-1.5375,-1.5362,-1.5398,-1.5383,-1.5386,-1.5396,-1.54,-1.5404,-1.5403,-1.5346,0,0,0,0,0,-1.533,-1.5341,-1.5342,-1.536,-1.5363,-1.5361,-1.5366,-1.5362,-1.5367,-1.5369,-1.5371,-1.5376,-1.5387,-1.5394,-1.5403,-1.5427,-1.5428,-1.5438,-1.5442,-1.5445,-1.5447,-1.5461,-1.5466,-1.5415,-1.5415,-1.5414,0,0,-1.5343,-1.5346,-1.5353,-1.5364,-1.5367,-1.5379,-1.5362,-1.5375,-1.5384,-1.5371,-1.5389,-1.539,-1.5396,-1.5417,-1.5427,-1.5419,-1.5462,-1.5447,-1.545,-1.5451,-1.5464,-1.5468,-1.5473,-1.5416,-1.5416,-1.5416,0,0,-1.5373,-1.5376,-1.5392,-1.5396,-1.5401,-1.54,-1.5403,-1.5407,-1.5407,-1.5425,-1.5416,-1.5427,-1.5444,-1.5449,-1.5454,-1.5487,-1.548,-1.549,-1.5509,-1.5523,-1.5527,-1.553,-1.5543,-1.5547,-1.5493,-1.5493,-1.5493,0,-1.5389,-1.5406,-1.5401,-1.5414,-1.542,-1.5409,-1.5426,-1.543,-1.5438,-1.5442,-1.5434,-1.5457,-1.546,-1.5483,-1.5491,-1.5495,-1.55,-1.549,-1.5526,-1.553,-1.5533,-1.5545,-1.555,-1.5494,-1.5494,-1.5494,-1.5494,0,-1.5425,-1.5437,-1.545,-1.5458,-1.5465,-1.548,-1.5478,-1.5485,-1.5481,-1.5481,-1.5499,-1.5503,-1.5513,-1.5518,-1.5514,-1.5541,-1.5536,-1.5527,-1.5512,-1.5539,-1.555,-1.5555,-1.5496,-1.5496,-1.5495,-1.5495,0,0,-1.5466,-1.5472,-1.5477,-1.5481,-1.5487,-1.5496,-1.5511,-1.5522,-1.5529,-1.5535,-1.5548,-1.5564,-1.5556,-1.5561,-1.5558,-1.5569,-1.5596,-1.5559,-1.5559,-1.5566,-1.5627,-1.5634,-1.5639,-1.5592,-1.5593,-1.5593,-1.5627,0,-1.5497,-1.5522,-1.5518,-1.5543,-1.5555,-1.5545,-1.5559,-1.5564,-1.5564,-1.5575,-1.5575,-1.5587,-1.5575,-1.5579,-1.559,-1.5591,-1.5609,-1.5588,-1.5604,-1.5605,-1.5603,-1.5645,-1.5652,-1.5683,-1.5631,-1.5631,-1.5632,0,-1.5535,-1.5543,-1.557,-1.5574,-1.5579,-1.5591,-1.5601,-1.561,-1.5617,-1.5616,-1.5623,-1.5617,-1.5633,-1.5618,-1.564,-1.5626,-1.5633,-1.5635,-1.5636,-1.5637,-1.562,-1.5647,-1.5693,-1.5698,-1.5639,-1.5638,-1.5638,0,-1.5563,-1.5581,-1.5599,-1.5603,-1.5608,-1.5617,-1.562,-1.5625,-1.5632,-1.5641,-1.5645,-1.5656,-1.5661,-1.567,-1.5668,-1.5657,-1.5691,-1.5675,-1.5691,-1.5691,-1.5699,-1.5698,-1.5746,-1.5702,-1.5702,-1.5702,-1.5702,0,-1.5598,-1.5614,-1.5612,-1.5623,-1.5641,-1.5637,-1.5656,-1.5658,-1.5663,-1.5674,-1.5667,-1.5678,-1.5675,-1.5686,-1.5685,-1.5704,-1.5706,-1.5707,-1.5706,-1.5707,-1.5707,-1.5712,-1.5709,-1.5704,-1.5703,-1.5703,-1.5703,0,-1.5632,-1.5631,-1.565,-1.5654,-1.5656,-1.5669,-1.5673,-1.5684,-1.5684,-1.5699,-1.5703,-1.5703,-1.5716,-1.5715,-1.573,-1.5729,-1.5752,-1.5749,-1.575,-1.575,-1.5766,-1.5765,-1.5818,-1.5825,-1.5777,-1.5777,-1.5778,0,-1.5654,-1.5667,-1.5673,-1.568,-1.5684,-1.5695,-1.5703,-1.5699,-1.5707,-1.5715,-1.5725,-1.5738,-1.5748,-1.5769,-1.5771,-1.5782,-1.578,-1.5798,-1.5781,-1.5783,-1.5781,-1.578,-1.5782,-1.5801,-1.5801,-1.5802,-1.5802,0,-1.5694,-1.5693,-1.5704,-1.5714,-1.5723,-1.573,-1.5738,-1.5744,-1.5742,-1.5751,-1.5764,-1.5772,-1.5787,-1.58,-1.5811,-1.5814,-1.5808,-1.5807,-1.5812,-1.5814,-1.5814,-1.5815,-1.576,-1.5806,-1.5806,-1.5806,-1.5805,-1.5805,-1.5724,-1.5735,-1.5741,-1.5753,-1.5758,-1.5765,-1.5776,-1.5777,-1.5788,-1.58,-1.5798,-1.5813,-1.582,-1.5834,-1.5839,-1.5851,-1.5845,-1.5851,-1.5852,-1.5854,-1.5856,-1.5812,-1.5853,-1.5853,-1.5853,-1.5853,-1.5853,0,-1.5764,-1.5768,-1.5778,-1.5789,-1.5799,-1.5792,-1.58,-1.5808,-1.5822,-1.5829,-1.5838,-1.5854,-1.5867,-1.587,-1.5882,-1.5891,-1.5889,-1.5895,-1.5894,-1.5895,-1.5861,-1.5856,-1.5896,-1.5896,-1.5896,-1.5896,-1.5896,-1.5896,-1.5786,-1.5805,-1.5805,-1.5826,-1.5829,-1.5844,-1.5849,-1.5856,-1.5862,-1.588,-1.589,-1.5892,-1.5897,-1.591,-1.5921,-1.5922,-1.5927,-1.5934,-1.5934,-1.5902,-1.5897,-1.5893,-1.5889,-1.5935,-1.5935,-1.5967,-1.5967,-1.5967]},{"header":{"parameterUnit":"m.s-1","parameterCategory":1,"la1":30.2991,"la2":30.254,"lo1":-89.0895,"lo2":-89.0444,"dy":0.0017,"dx":0.0017,"nx":28,"ny":28,"refTime":"2024-04-30T03:00:00:Z","depth":0,"parameterNumber":3,"parameterNumberName":"V-component_of_WINDS"},"data":[0,0,0,0,0,0,0,0,0,0,0,0,0,0,0,0,0,0,0,0,0,0,0,0,0,0,0,0,0,0,0,0,0,0,0,0,0,0,0,0,0,0,0,0,0,0,0,0,0,0,0,0,0,0,0,0,0,0,2.762,2.762,0,2.764,2.764,2.764,2.7659,2.7659,2.766,2.766,2.7677,2.7677,2.7677,0,0,0,0,0,0,0,0,0,0,0,0,0,2.7598,2.7598,2.762,2.762,2.7621,2.764,2.764,2.764,2.7659,2.7659,2.766,2.766,2.7677,2.7677,2.7677,0,0,0,0,0,0,0,0,0,0,0,0,0,2.7611,2.7598,2.762,2.7632,2.7634,2.7639,2.764,2.764,2.7659,2.7659,2.766,2.766,2.7677,2.7677,2.7677,2.7672,0,0,2.7678,2.7678,0,0,0,0,0,0,0,0,2.7611,2.7612,2.763,2.7632,2.7633,2.7647,2.7638,2.7651,2.7659,2.7649,2.766,2.766,2.7667,2.7668,2.767,2.7672,2.7673,2.7678,2.7679,2.7679,2.7679,0,0,0,0,0,0,0,2.761,2.7611,2.7628,2.7631,2.7632,2.7637,2.7639,2.7641,2.7655,2.765,2.7652,2.7654,2.7667,2.767,2.7671,2.7673,2.7678,2.7679,2.7679,2.7679,2.7673,2.7672,0,0,0,0,0,0,2.7607,2.7611,2.7627,2.7628,2.7623,2.7637,2.7639,2.7642,2.7655,2.7658,2.7653,2.7655,2.7669,2.7671,2.7672,2.7667,2.7679,2.7679,2.7679,2.7673,2.7673,2.7672,0,0,0,0,0,0,2.7607,2.7608,2.7626,2.762,2.7623,2.7637,2.764,2.7642,2.7645,2.7658,2.766,2.7654,2.767,2.7671,2.7672,2.7667,2.7679,2.7679,2.7673,2.7673,2.7672,2.7656,0,0,0,0,0,0,2.7606,2.7608,2.7606,2.762,2.7623,2.7627,2.764,2.7643,2.7646,2.7648,2.7659,2.7661,2.767,2.7671,2.7672,2.7668,2.768,2.7674,2.7673,2.7673,2.7657,2.7655,2.7653,0,0,0,0,0,2.7605,2.76,2.7606,2.7608,2.7621,2.7626,2.7628,2.7639,2.7646,2.7644,2.7652,2.7661,2.7668,2.7671,2.7672,2.7668,2.7674,2.7673,2.7673,2.7657,2.7655,2.7653,0,0,0,0,0,0,2.7584,2.7602,2.7609,2.7608,2.7616,2.763,2.7628,2.7636,2.7641,2.7643,2.7656,2.7658,2.7657,2.7663,2.7666,2.7664,2.7672,2.7672,2.766,2.7658,2.7656,2.7655,2.768,0,0,0,0,0,2.758,2.7584,2.7598,2.7596,2.76,2.7613,2.7616,2.7624,2.7632,2.7635,2.7644,2.765,2.7654,2.7656,2.7661,2.7658,2.766,2.7655,2.7653,2.7652,2.7651,2.7651,2.7649,2.767,2.767,2.767,0,0,2.757,2.758,2.7582,2.7592,2.7599,2.7602,2.7616,2.7618,2.762,2.7635,2.7637,2.7643,2.7652,2.7651,2.7651,2.7655,2.7646,2.7651,2.7649,2.7649,2.765,2.7648,2.7646,2.7669,2.7669,2.7669,0,0,2.7554,2.7562,2.7562,2.7569,2.758,2.7589,2.7589,2.7602,2.7607,2.7609,2.7621,2.7624,2.763,2.7636,2.764,2.7628,2.7636,2.7629,2.7619,2.7618,2.7616,2.7615,2.7611,2.761,2.7628,2.7628,2.7628,0,2.7541,2.7547,2.756,2.7563,2.7567,2.7583,2.7582,2.7588,2.7599,2.7602,2.7607,2.7616,2.7623,2.7624,2.7621,2.7624,2.7624,2.7627,2.7616,2.7614,2.7613,2.761,2.7608,2.7627,2.7627,2.7627,2.7627,0,2.753,2.7534,2.7532,2.7544,2.7549,2.7549,2.7563,2.7566,2.7574,2.7582,2.7585,2.7594,2.76,2.7601,2.7609,2.7604,2.7606,2.7613,2.7622,2.761,2.7607,2.7606,2.7626,2.7626,2.7626,2.7627,0,0,2.75,2.7521,2.752,2.7527,2.754,2.7543,2.7545,2.7553,2.7555,2.7563,2.7565,2.757,2.7578,2.7582,2.759,2.759,2.7581,2.7597,2.7597,2.7594,2.7576,2.7571,2.7569,2.7586,2.7586,2.7586,2.7576,0,2.7487,2.7492,2.7505,2.7506,2.751,2.7525,2.7527,2.7535,2.7544,2.7548,2.7557,2.7561,2.757,2.7573,2.7573,2.7582,2.7577,2.7583,2.7588,2.7588,2.7585,2.7567,2.7562,2.7551,2.7575,2.7574,2.7574,0,2.7472,2.748,2.7482,2.7497,2.7499,2.75,2.7509,2.7513,2.7523,2.7529,2.7535,2.7545,2.7547,2.7556,2.7559,2.7563,2.7566,2.757,2.757,2.7571,2.758,2.7568,2.7548,2.7547,2.7572,2.7572,2.7573,0,2.7451,2.7462,2.7465,2.747,2.7487,2.7488,2.7495,2.7505,2.7509,2.7517,2.752,2.7527,2.7531,2.7536,2.7548,2.7553,2.755,2.756,2.7555,2.7555,2.7554,2.7554,2.7535,2.7556,2.7556,2.7556,2.7556,0,2.7435,2.7435,2.7456,2.7457,2.7459,2.7474,2.7474,2.7483,2.7492,2.7495,2.7509,2.7511,2.7526,2.7531,2.754,2.7542,2.7543,2.7548,2.755,2.7547,2.7546,2.7549,2.755,2.7555,2.7555,2.7555,2.7555,0,2.7411,2.7425,2.7429,2.7446,2.745,2.745,2.7464,2.7466,2.7476,2.748,2.7482,2.7497,2.7503,2.7515,2.7524,2.753,2.753,2.7534,2.7527,2.7528,2.7523,2.7524,2.7505,2.7504,2.7525,2.7525,2.7525,0,2.74,2.7401,2.7418,2.7422,2.7429,2.7435,2.744,2.7455,2.7459,2.7472,2.7472,2.748,2.7486,2.7495,2.7506,2.7513,2.7518,2.7511,2.7519,2.7515,2.7518,2.7518,2.7518,2.7509,2.7508,2.7508,2.7508,0,2.7378,2.7386,2.7393,2.7403,2.7409,2.7417,2.7426,2.7428,2.7445,2.7449,2.7456,2.7462,2.7472,2.7479,2.7488,2.7495,2.7504,2.7506,2.7505,2.7501,2.7497,2.75,2.7522,2.7506,2.7506,2.7506,2.7506,2.7506,2.7361,2.7363,2.7376,2.7384,2.7392,2.7401,2.7404,2.7415,2.7421,2.7431,2.744,2.7446,2.7457,2.747,2.7477,2.7482,2.7486,2.7485,2.7485,2.7484,2.7483,2.7497,2.7483,2.7483,2.7483,2.7483,2.7483,0,2.734,2.735,2.7357,2.737,2.7376,2.7386,2.7397,2.7401,2.7407,2.7417,2.7424,2.7432,2.744,2.7452,2.746,2.7462,2.7466,2.7463,2.7463,2.7465,2.7478,2.7478,2.746,2.746,2.746,2.746,2.746,2.746,2.7331,2.7335,2.7344,2.7353,2.7362,2.737,2.7375,2.7383,2.7391,2.74,2.7407,2.7415,2.7426,2.7436,2.7443,2.7446,2.7449,2.7444,2.7449,2.7462,2.7464,2.7466,2.7466,2.7445,2.7445,2.7435,2.7435,2.7435]}]]